STARLINK-3896, 52456

Orbit data source: Space-Track

STARLINK-3896, 52456 is a payload satellite owned by SpaceX/Seattle (US) in LEO that was launched on Fri, 06 May 2022 UTC via an FALCON 9 launch vehicle from the Air Force Eastern Test Range (AFETR). Payload-class satellites include a variety of spacecraft equipped with specific instruments for various scientific and technological missions. These include communications satellites like Starlink; space stations such as the ISS; scientific satellites like the Hubble; Earth observation satellites from companies like Planet Labs, Umbra, and HawkEye 360; GPS; miniature CubeSats for education and research; and military/defense satellites.

Loading next visibility...
Identifier
52456, 2022-049F
Orbit
LEO
Country
Flag of USUS
Related business
Manufacturer
SpaceX/Seattle
Mission
Operational Commercial Communications
Bus & Motor
STARLINK, Unknown motor
Mass
297 kg wet, ~220 kg dry
Launch date (UTC)
2022-05-06 (4 years ago)
Launch vehicle
FALCON 9
Launch site
Air Force Eastern Test Range (AFETR)
Object type
Payload
Rocket body
Debris
Shape & HBR
Box + 1 Pan, 10.1 m
Radar Cross Section
13.562 m², Large (>1 m²)

Expand to show TLE details & history
Last TLE update: 18 hours ago

TLE from 18 hours ago
0 STARLINK-3896
1 52456U 22049F   26206.60999618  .00000326  00000-0  38571-4 0  9992
2 52456  53.1599 169.6431 0001294  80.3863 279.7275 15.08830393232938
Epoch: 2026-07-25T14:38Z
TLE epoch observation values (Epoch: 2026-07-25T14:38:23.669Z)
Latitude
-0.00001°
Longitude
6.72466°
Altitude
540.513 km
Speed
7.593 km/s
True Right ascension
11h 18m 34s
True Declination
0° 00' 00"
Sunlit
Object was in daylight at epoch
Visualization orbit readout
Latitude
Unknown
Longitude
Unknown
Altitude
Unknown
Speed
Unknown
Apparent Right ascension
Unknown
Apparent Declination
Unknown
Sunlit
N/A
Visualization observer readout
Local Sidereal Time
22:11:40
Azimuth
Unknown
Elevation
Unknown
Doppler factor
Unknown
Orbital elements
Apogee altitude
540.922 km
Perigee altitude
539.132 km
Semi-major axis
6,918.164 km
Eccentricity
0.00013
Inclination
53.1599°
RAAN
169.6431°
Arg. of periapsis
80.3863°
True anomaly
279.71288°
Mean anomaly
279.7275°
Eccentric anomaly
279.72019°
Mean motion
3.77187 °/min
Orbital period
95.44 mins
BSTAR
0.000038571
Loading maneuver chart data...
Computing Atmospheric mass density...
Loading historical data...
Loading historical data...
Loading historical data...
Loading historical data...
Loading historical data...
Loading historical data...
Loading historical data...

Documentation

Showing up to 5 results
|